Location: Ayllón
(41.4190°N, 3.3754°W)
Time: 14:49:02
(UTC+00:00)

Daily predictions for brighter satellites

Satellite Brightness Start Highest point End
(mag) Time Altitude Azimuth Time Altitude Azimuth Time Altitude Azimuth
OAO 2 Rocket 4.2 20:16:45 10° WSW 20:21:29 36° S 20:26:14 10° SE
Helios 1A Rocket 3.0 20:21:13 10° NNE 20:24:05 32° E 20:26:56 10° SSE
ADEOS 3.9 20:19:32 10° SE 20:24:33 52° ENE 20:29:36 10° N
Cosmos 1758 3.4 20:22:22 10° N 20:26:00 50° E 20:29:37 10° SSE
NOSS 2-3 (C) 2.9 20:23:42 10° SSW 20:27:11 65° ESE 20:30:35 10° NE
SL-08 R/B 3.6 20:23:25 10° NNE 20:27:48 44° E 20:32:09 10° S
Cosmos 1655 Rocket 4.1 20:21:27 10° N 20:27:51 72° E 20:34:13 10° SSE
SL-14 R/B 3.2 20:25:53 10° S 20:29:34 85° W 20:33:19 10° N
Cosmos 2344 4.1 20:22:29 10° S 20:30:03 36° ESE 20:36:32 10° NE
Cosmos 1703 4.1 20:31:47 10° SE 20:34:18 22° E 20:36:51 10° NE
Cosmos 2285 Rocket 4.2 20:28:11 10° NNW 20:34:33 65° ENE 20:40:54 10° SSE
Cosmos 1500 Rocket 4.2 20:30:40 10° N 20:34:39 36° ENE 20:38:36 10° SE
CZ-4B DEB 4.4 20:30:30 10° S 20:35:59 78° WSW 20:41:28 10° NNW
USA 276 2.8 20:34:56 10° S 20:36:16 16° SE 20:37:44 10° E
PAYLOAD B 4.4 20:31:44 10° SSE 20:37:20 85° WSW 20:42:58 10° NNW
Spot 2 Rocket 3.9 20:33:08 10° SE 20:38:01 50° ENE 20:42:55 10° N
ERS-1 Rocket 3.2 20:33:15 10° S 20:38:14 74° WSW 20:43:15 10° NNW
Cosmos 1538 Rocket 4.1 20:34:54 10° S 20:39:55 54° ESE 20:45:01 10° NNE
Terra 2.0 20:37:45 10° S 20:42:26 75° WSW 20:47:10 10° NNW
Okean O Rocket 2.2 20:38:20 10° SE 20:42:27 43° ENE 20:46:36 10° N
CZ-4B R/B 3.2 20:38:03 10° SSE 20:43:27 89° E 20:48:48 10° NNW
USA 59 Rocket 0.9 20:40:21 10° S 20:43:31 21° ESE 20:46:10 10° ENE
NOSS 2-3 (E) 4.3 20:40:26 10° SW 20:44:01 46° NW 20:47:38 10° NNE
Cosmos 1833 Rocket 3.3 20:40:54 10° NNW 20:46:16 43° ENE 20:51:06 12° SE
In-Cosmos 22 4.5 20:41:26 10° SSW 20:47:11 77° W 20:52:57 10° N
Cosmos 1607 4.2 20:45:16 10° NW 20:51:40 72° WSW 20:57:56 11° SSE
HBTSS-SV1 4.5 20:49:54 10° W 20:54:12 63° S 20:57:59 13° ESE
Cosmos 1151 Rocket 3.0 20:52:04 10° S 20:56:23 90° E 21:00:43 10° N
Meteor 2-11 Rocket 4.5 20:50:29 10° N 20:56:34 85° W 21:02:39 10° S
IRS-1A Rocket 4.4 20:50:49 10° SSE 20:56:42 85° WSW 21:02:31 10° NNW
Cosmos 1953 3.5 20:56:46 10° NNE 20:59:40 23° ENE 21:01:28 16° ESE
Cosmos 1553 Rocket 4.0 20:53:37 10° S 20:59:56 74° E 21:06:12 10° N
GP-B 4.0 20:59:41 10° NNE 21:03:34 30° E 21:06:09 17° SE
NOSS 3-2 (C) 4.4 20:59:15 10° WSW 21:03:59 44° NW 21:09:37 10° NNE
BREEZE-M R/B 3.0 21:00:51 10° SW 21:04:10 85° SE 21:10:20 10° ENE
Sich 1 4.1 21:03:20 10° NNW 21:07:24 43° W 21:11:26 10° SSW
NOSS 2-1 (C) 4.2 21:04:28 10° S 21:08:07 26° ESE 21:11:03 10° ENE
Cosmos 2082 Rocket 4.3 21:05:52 10° NNE 21:09:02 15° NE 21:12:12 10° E
Milstar 3 Cent rocket 3.7 21:06:57 10° SW 21:09:38 14° SSW 21:11:16 12° S
Cosmos 2278 Rocket 3.0 21:06:56 14° SSE 21:10:54 30° ESE 21:15:46 10° NE
Cosmos 1408 Rocket 3.7 21:08:13 10° N 21:12:38 76° W 21:16:42 12° S
Cosmos 1805 Rocket 3.7 21:09:58 10° NNW 21:14:19 72° W 21:18:17 12° S
USA 238 DEB 3.5 21:13:59 10° SSW 21:19:50 60° ESE 21:26:15 10° NE
Cosmos 1666 Rocket 4.4 21:15:57 10° N 21:19:53 33° ENE 21:21:56 21° SE
USA 238 3.5 21:14:14 10° SSW 21:20:04 59° ESE 21:26:28 10° NE
SPOT 3 Rocket 3.7 21:17:22 19° SE 21:20:58 58° ENE 21:26:02 10° N
Lacrosse 5 rocket 3.9 21:19:14 10° W 21:21:59 20° NNW 21:24:43 10° NNE
Cosmos 1943 Rocket 2.4 21:17:10 10° S 21:22:37 50° ESE 21:28:02 10° NE
SL-8 R/B 3.7 21:20:58 10° SW 21:25:31 52° SE 21:30:08 10° ENE
Cosmos 1743 Rocket 3.5 21:23:28 10° N 21:27:51 90° W 21:30:49 20° S
Timation 1 Rocket 4.4 21:25:52 10° NNW 21:31:49 67° ENE 21:35:36 23° SE
USA 245 2.5 21:35:12 39° SSE 21:36:08 71° ENE 21:38:48 10° N
Cosmos 1745 Rocket 4.0 21:31:37 10° N 21:37:56 70° E 21:42:08 22° SSE
USA 186 2.3 21:41:25 27° WSW 21:41:41 28° W 21:43:34 10° NW
Okean 2 4.1 21:42:54 29° ESE 21:43:34 31° E 21:46:59 10° NNE
Cosmos 1680 Rocket 3.4 21:41:11 18° S 21:45:03 65° ESE 21:50:13 10° NNE
Meteor 1-22 Rocket 4.1 21:40:51 10° NNW 21:46:08 78° W 21:49:35 22° S
Cosmos 1633 Rocket 3.2 21:45:26 10° N 21:49:47 59° E 21:51:28 34° SE
Okean-O 4.0 21:46:26 13° SSW 21:49:53 34° W 21:53:52 10° NNW
Iridium 45 4.2 21:49:39 41° SSW 21:50:36 76° W 21:53:42 10° N
Cosmos 1400 Rocket 4.4 21:50:09 10° NNE 21:52:44 18° ENE 21:53:10 18° E
Cosmos 2056 Rocket 3.8 21:52:00 10° N 21:56:58 51° ENE 21:59:06 31° SE
Meteor 1-23 Rocket 4.1 21:54:49 24° S 21:58:17 76° E 22:03:50 10° NNE
SWARM A 4.4 22:04:32 10° N 22:07:44 62° W 22:08:20 49° SW
Cosmos 1420 Rocket 4.2 22:03:02 10° NNW 22:08:11 65° WSW 22:10:32 32° S
USA 276 3.2 22:06:41 10° W 22:08:44 33° NNW 22:11:04 10° NE
NOSS 2-1 (E) 3.3 22:09:02 10° SW 22:13:20 70° NW 22:16:41 10° NNE
CZ-4B R/B 3.6 22:12:15 30° SSW 22:13:43 44° W 22:17:35 10° NNW
Ariane Rocket 3.3 22:12:03 29° S 22:14:34 59° W 22:19:35 10° NNW
Meteor 1-15 Rocket 4.5 22:09:09 10° NNW 22:14:50 66° W 22:17:48 28° S
IRS-1C Rocket 4.5 22:15:27 28° SSW 22:18:04 57° W 22:23:16 10° NNW
Okean O Rocket 3.9 22:15:58 10° SW 22:18:49 17° W 22:21:42 10° NW
Helios 1B rocket 4.2 22:24:53 15° ENE 22:25:00 15° ENE 22:26:58 10° NNE
Cosmos 2315 Rocket 4.2 22:21:39 21° SSW 22:25:59 67° W 22:32:10 10° N
CZ-4B R/B 4.2 22:26:52 29° SSW 22:29:11 48° W 22:34:15 10° NNW
Cosmos 1833 Rocket 4.2 22:25:14 10° NW 22:29:54 27° WSW 22:32:47 18° SW
Cosmos 1470 Rocket 3.6 22:26:09 10° NNW 22:30:36 74° W 22:31:40 50° SSW
USA 59 Rocket 1.7 22:28:50 10° WSW 22:31:56 24° NW 22:34:35 10° N
Cosmos 1441 Rocket 3.7 22:33:47 39° NE 22:33:47 39° NE 22:36:07 10° NNE
Cosmos 1953 4.2 22:31:51 10° NW 22:34:23 18° W 22:35:40 16° WSW
Okean 3 3.2 22:34:54 65° ESE 22:35:03 66° E 22:39:02 10° NNE
CZ-2C R/B 3.3 22:36:44 35° WNW 22:36:44 35° WNW 22:38:42 10° NNW
Cosmos 1933 Rocket 3.7 22:33:41 10° N 22:37:56 54° E 22:38:23 51° ESE
SWAS 4.5 22:40:41 48° SW 22:41:39 70° WNW 22:45:42 10° NNE
BREEZE-M DEB (TANK) 4.0 22:40:03 10° WNW 22:40:54 23° WNW 22:40:54 23° WNW
Cosmos 1110 Rocket 4.3 22:39:03 10° NNW 22:44:08 56° ENE 22:45:23 44° ESE
Cosmos 1371 Rocket 4.3 22:44:01 10° NNW 22:49:07 57° WSW 22:50:25 44° SSW
SL-4 R/B 3.9 22:55:58 15° NE 22:55:58 15° NE 22:56:33 10° NE
Cosmos 2082 Rocket 2.1 22:48:18 10° NNW 22:53:56 88° ENE 22:55:23 52° SSE
Cosmos 1452 Rocket 4.2 22:49:29 10° N 22:54:32 44° ENE 22:55:52 37° ESE
Cosmos 2278 Rocket 3.4 22:49:30 10° SW 22:54:47 39° WNW 23:00:05 10° N
ACS3 Solar Sail 3.8 22:54:58 10° ENE 22:56:07 11° E 22:56:47 10° E
Helios 1A 2.7 22:52:18 10° NNE 22:56:17 88° WNW 22:56:22 86° SW
Cosmos 614 Rocket 3.9 22:57:55 59° SE 22:58:31 64° ESE 23:03:31 10° NNE
Cosmos 1174 4.5 23:00:26 36° WSW 23:01:32 48° WNW 23:04:57 10° NNE
Cosmos 2184 Rocket 4.0 22:57:10 10° N 23:03:30 76° E 23:05:24 48° SSE
Cosmos 2154 Rocket 4.0 22:58:28 10° N 23:04:41 71° E 23:06:28 48° SSE
ARIANE 5 R/B 3.4 23:05:10 38° E 23:05:34 39° ENE 23:09:42 10° N
Cosmos 1943 Rocket 4.2 23:01:58 10° WSW 23:06:35 25° NW 23:11:12 10° N
Cosmos 1331 Rocket 3.8 23:03:14 10° NNW 23:08:25 86° ENE 23:09:16 63° SSE
Cosmos 1869 Rocket 3.3 23:05:52 10° N 23:10:12 90° W 23:10:17 86° S
CZ-2C R/B 3.7 23:08:13 10° NNE 23:12:56 70° ESE 23:13:09 68° SE
ARGOS Delta rocket 3.9 23:09:05 10° N 23:14:18 84° WNW 23:15:11 61° SSW
CZ-3B R/B 3.7 23:16:36 40° SE 23:17:37 43° ESE 23:32:31 10° NE
CZ-2C R/B 4.3 23:16:25 18° E 23:18:14 22° ENE 23:22:13 10° NNE
SL-12 R/B(2) 4.1 23:15:35 34° SSW 23:19:26 77° ESE 23:28:44 10° NE
CZ-2C R/B 4.0 23:15:06 10° NNE 23:19:46 32° E 23:19:50 32° E
ALOS 2 3.0 23:21:23 49° E 23:21:33 49° ENE 23:25:49 10° N
Cosmos 1733 Rocket 3.6 23:18:01 10° N 23:22:03 45° ENE 23:22:03 45° ENE
Cosmos 1707 Rocket 4.2 23:22:47 43° ENE 23:22:47 43° ENE 23:26:37 10° NNE
Cosmos 2228 Rocket 4.2 23:26:00 31° ENE 23:26:00 31° ENE 23:29:28 10° NNE
Cosmos 1400 Rocket 4.3 23:25:01 10° NW 23:27:37 24° W 23:27:37 24° W
Cosmos 2369 Rocket 2.2 23:32:23 58° SE 23:32:49 60° ESE 23:38:19 10° NNE
Cosmos 1862 Rocket 3.7 23:34:20 62° ENE 23:34:20 62° ENE 23:38:12 10° NNE
ARIANE 6 FM1 Upper Stage 3.0 23:34:00 59° WNW 23:34:13 60° NW 23:38:18 10° NNE
COSMOS 2406 3.1 23:30:38 10° NNW 23:36:21 89° ENE 23:37:19 63° SSE
Cosmos 2297 3.8 23:36:40 55° SE 23:37:07 57° ESE 23:42:43 10° NNE
Cosmos 1315 Rocket 4.0 23:35:07 10° N 23:38:04 32° ENE 23:38:04 32° ENE
Cosmos 1656 Rocket 4.3 23:40:53 31° WSW 23:43:08 48° WNW 23:48:32 10° NNE
Okean 1-7 3.1 23:48:24 72° NNW 23:48:24 72° NNW 23:52:17 10° N
Cosmos 972 Rocket 3.8 23:43:42 10° NNW 23:49:08 88° ENE 23:49:35 75° SSE
IRIDIUM 103 4.3 23:45:12 10° N 23:50:26 70° E 23:50:55 65° ESE
USA 215 3.4 23:47:35 28° ESE 23:51:13 72° NE 23:57:43 10° NW
Cosmos 1302 Rocket 3.8 23:48:01 10° NNW 23:53:20 90° W 23:53:49 75° SSE
